Weather in Termal'ny

Russia / Kamchatka Krai     52°56′09″N   158°13′43″E
temp.,
°C
wind,
m/s
gust,
m/s
humid.,
%
clouds,
%
prec.,
mm/h
press.,
hPa
HPBL,
m
9 december, thu
thu900:00−6w9167511 0.2 1011540
03:00−7wnw11187814 0.1 1011731
06:00−8wnw12197611 0.2 1012834
09:00−8wnw1320759 0.1 1014921
12:00−6wnw13217511 0.1 10151512
15:00−5wnw11178042 0.1 10161193
18:00−6wnw11197511 0.1 1019745
21:00−6w6117511 0.0 1020265
10 december, fri
fri1000:00−8w348210 0.0 1022127
03:00−9w338528 0.0 102343
06:00−9wnw338544 0.0 102440
09:00−9wnw228794 0.0 102436
12:00−4nnw2293100 0.2 1024132
15:00−2nne019499 0.4 1023107
18:00−2w119492 0.5 102325
21:00−3w338915 0.1 102327
11 december, sat
sat1100:00−4w33859 0.1 102417
03:00−4w338592 0.0 102424
06:00−3w4385100 0.0 102333
09:00−4w3385100 0.0 102327
12:00−2w2284100 0.0 102355
15:00−1w2284100 0.0 102031
18:00−4w2286100 0.0 102013
21:00−6w228851 0.0 102018
12 december, sun
sun1200:00−7w2188100 0.0 101921
03:00−7w1189100 0.0 101819
06:00−7sw1191100 0.0 101718
09:00−7sw1190100 0.0 101618
12:00−4nnw0186100 0.0 101472
15:00−3wnw0187100 0.0 101241
18:00−5wnw2286100 0.0 101122
21:00−5wnw2283100 0.0 101026
13 december, mon
mon1300:00−6wnw2282100 0.0 100931
03:00−6wnw3279100 0.0 100740
06:00−6wnw2278100 0.0 100743
09:00−7wnw3277100 0.0 100742
12:00−6wnw2273100 0.0 100792
15:00−5nw227639 0.0 100679
18:00−9w228152 0.0 100727
21:00−9wnw118598 0.0 100730